This is the latest recevied weather packets stored in our database for station/object DL9TPA-1. If no packets are shown the sender has not sent any weather packets the latest 10 day(s).
| Time | Temp. | Humidity | Pressure | Rain* | Wind** | Luminosity | Snow |
|---|---|---|---|---|---|---|---|
| 1778005500 | 15° C | 89% | 1005 hPa | 1.02 mm | - | - | - |
| 1778004897 | 15° C | 87% | 1005.1 hPa | 0.51 mm | - | - | - |
| 1778004297 | 15° C | 87% | 1004.8 hPa | 0.25 mm | - | - | - |
| 1778003695 | 15.56° C | 86% | 1004.7 hPa | 0.25 mm | - | - | - |
| 1778003093 | 15.56° C | 86% | 1004.7 hPa | 0.25 mm | - | - | - |
| 1778002490 | 15.56° C | 85% | 1004.4 hPa | 0.25 mm | - | - | - |
| 1778001890 | 16.67° C | 83% | 1004.7 hPa | 0.25 mm | - | - | - |
| 1778001287 | 16.67° C | 80% | 1005.6 hPa | 0 mm | - | - | - |
| 1778000684 | 17.22° C | 78% | 1005.7 hPa | 0 mm | - | - | - |
| 1778000081 | 17.78° C | 76% | 1005.8 hPa | 0 mm | - | - | - |
| 1777999482 | 17.78° C | 74% | 1005.6 hPa | 0 mm | - | - | - |
| 1777998877 | 18.33° C | 73% | 1005.7 hPa | 0 mm | - | - | - |
| 1777998275 | 18.33° C | 74% | 1005.8 hPa | 0 mm | - | - | - |
| 1777997672 | 18.33° C | 72% | 1005.8 hPa | 0 mm | - | - | - |
| 1777997070 | 18.33° C | 72% | 1005.9 hPa | 0 mm | - | - | - |
| 1777996468 | 18.33° C | 72% | 1006 hPa | 0 mm | - | - | - |
| 1777995866 | 18.89° C | 72% | 1005.8 hPa | 0 mm | - | - | - |
| 1777995266 | 18.89° C | 72% | 1006 hPa | 0 mm | - | - | - |
| 1777994666 | 18.89° C | 71% | 1006.2 hPa | 0 mm | - | - | - |
| 1777994063 | 19.44° C | 70% | 1006.2 hPa | 0 mm | - | - | - |
| 1777993461 | 20° C | 70% | 1006.4 hPa | 0 mm | - | - | - |
| 1777992859 | 20° C | 70% | 1006.4 hPa | 0 mm | - | - | - |
| 1777992257 | 21.11° C | 67% | 1006.4 hPa | 0 mm | - | - | - |
| 1777991652 | 21.11° C | 67% | 1006.4 hPa | 0 mm | - | - | - |
| 1777991050 | 21.67° C | 66% | 1006.4 hPa | 0 mm | - | - | - |
* Rain latest hour (hover to see other rain measurements)
** Current wind speed in m/s (hover to see current wind gust speed)